| time (UTC) | temp F | wind direction | speed knots | gust knots | rain 1hr in | rain 24hr in | rain mn in | humidity % | barometer mb |
| 20260505214250 | 52 | 21 | 3.5 | 10.4 | 0.00 | 0.07 | 0.05 | 81 | 1009.4 |
| 20260505213750 | 52 | 11 | 2.6 | 5.2 | 0.00 | 0.09 | 0.05 | 81 | 1009.3 |
| 20260505213249 | 52 | 18 | 3.5 | 6.1 | 0.00 | 0.13 | 0.05 | 81 | 1009.3 |
| 20260505212750 | 52 | 28 | 4.3 | 7.8 | 0.00 | 0.17 | 0.05 | 80 | 1009.3 |
| 20260505212250 | 52 | 24 | 3.5 | 10.4 | 0.00 | 0.20 | 0.05 | 80 | 1009.3 |
| 20260505211751 | 52 | 28 | 4.3 | 10.4 | 0.00 | 0.20 | 0.05 | 80 | 1009.3 |
| 20260505211249 | 52 | 38 | 4.3 | 9.6 | 0.00 | 0.23 | 0.05 | 79 | 1009.4 |
| 20260505211153 | 52 | 49 | 4.3 | 9.6 | 0.00 | 0.25 | 0.05 | 79 | 1009.3 |
| 20260505210250 | 52 | 8 | 4.3 | 9.6 | 0.00 | 0.29 | 0.05 | 79 | 1009.4 |
| 20260505205750 | 52 | 30 | 4.3 | 9.6 | 0.00 | 0.36 | 0.05 | 79 | 1009.4 |
| 20260505205248 | 52 | 42 | 5.2 | 9.6 | 0.00 | 0.40 | 0.05 | 78 | 1009.5 |
| 20260505204748 | 53 | 3 | 5.2 | 9.6 | 0.00 | 0.43 | 0.05 | 78 | 1009.3 |
| 20260505204248 | 53 | 39 | 4.3 | 8.7 | 0.00 | 0.46 | 0.05 | 78 | 1009.4 |
| 20260505203749 | 53 | 25 | 3.5 | 11.3 | 0.00 | 0.46 | 0.05 | 79 | 1009.3 |
| 20260505203247 | 53 | 35 | 6.1 | 11.3 | 0.00 | 0.46 | 0.05 | 78 | 1009.3 |
| 20260505202749 | 53 | 37 | 4.3 | 10.4 | 0.00 | 0.46 | 0.05 | 80 | 1009.4 |
| 20260505202248 | 53 | 37 | 6.1 | 10.4 | 0.00 | 0.46 | 0.05 | 82 | 1009.3 |
| 20260505201747 | 53 | 24 | 2.6 | 4.3 | 0.00 | 0.47 | 0.05 | 84 | 1009.3 |
| 20260505201248 | 53 | 45 | 1.7 | 4.3 | 0.00 | 0.50 | 0.05 | 85 | 1009.2 |
| 20260505201053 | 53 | 55 | 2.6 | 4.3 | 0.00 | 0.54 | 0.05 | 85 | 1009.3 |
| 20260505200246 | 53 | 25 | 1.7 | 3.5 | 0.00 | 0.55 | 0.05 | 86 | 1009.2 |
| 20260505195747 | 53 | 38 | 1.7 | 2.6 | 0.00 | 0.55 | 0.05 | 86 | 1009.2 |
| 20260505195246 | 53 | 14 | 1.7 | 3.5 | 0.00 | 0.55 | 0.05 | 86 | 1009.2 |
| 20260505195041 | 53 | 17 | 1.7 | 4.3 | 0.00 | 0.55 | 0.05 | 86 | 1009.1 |
| 20260505194301 | 53 | 16 | 2.6 | 4.3 | 0.00 | 0.55 | 0.05 | 86 | 1009.0 |
| 20260505194043 | 53 | 34 | 1.7 | 2.6 | 0.00 | 0.55 | 0.05 | 86 | 1009.0 |
| 20260505193249 | 53 | 37 | 0.9 | 2.6 | 0.00 | 0.55 | 0.05 | 85 | 1009.0 |
| 20260505192750 | 53 | 35 | 1.7 | 2.6 | 0.00 | 0.55 | 0.05 | 86 | 1009.0 |
| 20260505192246 | 53 | 32 | 1.7 | 2.6 | 0.00 | 0.55 | 0.05 | 86 | 1009.0 |
| 20260505191746 | 53 | 31 | 1.7 | 2.6 | 0.00 | 0.55 | 0.05 | 85 | 1008.8 |
| 20260505191546 | 53 | 30 | 0.9 | 1.7 | 0.00 | 0.55 | 0.05 | 85 | 1008.9 |
| 20260505190747 | 53 | 28 | 0.0 | 0.9 | 0.00 | 0.55 | 0.05 | 85 | 1008.9 |
| 20260505190246 | 53 | 28 | 0.0 | 0.0 | 0.00 | 0.55 | 0.05 | 85 | 1008.9 |
| 20260505185745 | 53 | 28 | 0.0 | 0.0 | 0.00 | 0.55 | 0.05 | 85 | 1008.9 |
| 20260505185244 | 54 | 32 | 0.0 | 0.0 | 0.00 | 0.55 | 0.05 | 85 | 1008.8 |
| 20260505184753 | 54 | 42 | 0.0 | 0.0 | 0.00 | 0.55 | 0.05 | 85 | 1009.0 |
| 20260505184528 | 54 | 44 | 0.0 | 2.6 | 0.00 | 0.55 | 0.05 | 84 | 1008.8 |
| 20260505183745 | 54 | 52 | 0.0 | 3.5 | 0.00 | 0.55 | 0.05 | 84 | 1008.8 |
| 20260505183244 | 54 | 52 | 1.7 | 3.5 | 0.00 | 0.55 | 0.05 | 84 | 1008.9 |
| 20260505182746 | 54 | 55 | 1.7 | 4.3 | 0.00 | 0.55 | 0.05 | 84 | 1008.8 |
| 20260505182245 | 54 | 42 | 2.6 | 4.3 | 0.00 | 0.55 | 0.05 | 83 | 1008.8 |
| 20260505181745 | 54 | 51 | 1.7 | 4.3 | 0.00 | 0.55 | 0.05 | 83 | 1008.9 |
| 20260505181529 | 54 | 72 | 1.7 | 4.3 | 0.00 | 0.55 | 0.05 | 84 | 1008.8 |
| 20260505180745 | 54 | 55 | 0.9 | 4.3 | 0.00 | 0.55 | 0.05 | 83 | 1008.8 |
| 20260505180245 | 54 | 55 | 1.7 | 5.2 | 0.00 | 0.55 | 0.05 | 83 | 1008.8 |
| 20260505175745 | 54 | 45 | 3.5 | 6.1 | 0.00 | 0.55 | 0.05 | 83 | 1008.7 |
| 20260505175543 | 54 | 59 | 4.3 | 6.1 | 0.00 | 0.55 | 0.05 | 83 | 1008.7 |
| 20260505174743 | 54 | 52 | 3.5 | 5.2 | 0.00 | 0.55 | 0.05 | 83 | 1008.7 |
| 20260505174244 | 54 | 66 | 2.6 | 5.2 | 0.00 | 0.55 | 0.05 | 82 | 1008.7 |
| 20260505173743 | 54 | 41 | 2.6 | 8.7 | 0.00 | 0.55 | 0.05 | 83 | 1008.7 |
| 20260505173253 | 54 | 58 | 3.5 | 8.7 | 0.00 | 0.55 | 0.05 | 83 | 1008.8 |
| 20260505172742 | 54 | 49 | 2.6 | 6.1 | 0.00 | 0.55 | 0.05 | 83 | 1008.9 |
| 20260505172242 | 53 | 44 | 2.6 | 5.2 | 0.00 | 0.55 | 0.05 | 83 | 1008.9 |
| 20260505171742 | 53 | 35 | 1.7 | 8.7 | 0.00 | 0.55 | 0.05 | 83 | 1008.8 |
| 20260505171242 | 53 | 68 | 5.2 | 8.7 | 0.00 | 0.55 | 0.05 | 83 | 1008.8 |
| 20260505170744 | 53 | 49 | 3.5 | 7.8 | 0.00 | 0.55 | 0.05 | 83 | 1008.8 |
| 20260505170251 | 54 | 58 | 3.5 | 8.7 | 0.00 | 0.55 | 0.05 | 83 | 1008.9 |
| 20260505165755 | 54 | 41 | 5.2 | 8.7 | 0.00 | 0.55 | 0.05 | 83 | 1008.9 |
| 20260505165243 | 54 | 30 | 3.5 | 7.8 | 0.00 | 0.55 | 0.05 | 83 | 1008.9 |
| 20260505164759 | 54 | 48 | 3.5 | 9.6 | 0.00 | 0.55 | 0.05 | 83 | 1009.0 |
| 20260505164250 | 54 | 48 | 4.3 | 9.6 | 0.00 | 0.55 | 0.05 | 83 | 1009.1 |
| 20260505163740 | 54 | 39 | 4.3 | 7.8 | 0.00 | 0.55 | 0.05 | 83 | 1009.3 |
| 20260505163241 | 54 | 48 | 3.5 | 9.6 | 0.00 | 0.55 | 0.05 | 84 | 1009.2 |
| 20260505162741 | 54 | 16 | 4.3 | 9.6 | 0.00 | 0.55 | 0.05 | 83 | 1009.1 |
| 20260505162241 | 54 | 49 | 5.2 | 8.7 | 0.00 | 0.55 | 0.05 | 84 | 1009.2 |
| 20260505161742 | 54 | 41 | 3.5 | 5.2 | 0.00 | 0.56 | 0.05 | 84 | 1009.2 |
| 20260505161243 | 53 | 38 | 3.5 | 9.6 | 0.00 | 0.57 | 0.05 | 84 | 1009.2 |
| 20260505160754 | 53 | 48 | 3.5 | 9.6 | 0.00 | 0.57 | 0.05 | 84 | 1009.2 |
| 20260505160242 | 53 | 44 | 5.2 | 9.6 | 0.00 | 0.57 | 0.05 | 85 | 1009.2 |
| 20260505153242 | 53 | 31 | 4.3 | 7.8 | 0.00 | 0.60 | 0.05 | 84 | 1009.3 |
| 20260505152740 | 53 | 32 | 4.3 | 7.8 | 0.00 | 0.60 | 0.05 | 85 | 1009.2 |
| 20260505152240 | 53 | 7 | 3.5 | 7.8 | 0.00 | 0.61 | 0.05 | 85 | 1009.3 |
| 20260505151740 | 53 | 27 | 3.5 | 8.7 | 0.00 | 0.62 | 0.05 | 85 | 1009.4 |
| 20260505151240 | 53 | 30 | 5.2 | 10.4 | 0.00 | 0.62 | 0.05 | 85 | 1009.6 |
| 20260505150741 | 53 | 41 | 5.2 | 10.4 | 0.00 | 0.63 | 0.05 | 86 | 1009.5 |
| 20260505150240 | 53 | 55 | 5.2 | 10.4 | 0.00 | 0.63 | 0.05 | 86 | 1009.4 |
| 20260505140239 | 53 | 62 | 4.3 | 8.7 | 0.00 | 0.65 | 0.05 | 87 | 1009.7 |
| 20260505124738 | 53 | 16 | 5.2 | 12.2 | 0.00 | 0.65 | 0.05 | 87 | 1010.1 |
| 20260505124236 | 52 | 34 | 7.0 | 12.2 | 0.00 | 0.65 | 0.05 | 87 | 1010.1 |
| 20260505123736 | 52 | 35 | 7.0 | 12.2 | 0.00 | 0.65 | 0.05 | 88 | 1010.1 |
| 20260505123236 | 52 | 30 | 6.1 | 11.3 | 0.00 | 0.65 | 0.05 | 88 | 1010.2 |
| 20260505122736 | 52 | 48 | 4.3 | 9.6 | 0.00 | 0.65 | 0.05 | 88 | 1010.2 |
| 20260505122556 | 52 | 35 | 5.2 | 13.9 | 0.00 | 0.65 | 0.05 | 89 | 1010.3 |
| 20260505121735 | 52 | 38 | 5.2 | 13.9 | 0.00 | 0.65 | 0.05 | 89 | 1010.2 |
| 20260505121240 | 51 | 38 | 6.1 | 13.0 | 0.00 | 0.65 | 0.05 | 89 | 1010.3 |
| 20260505121040 | 51 | 32 | 5.2 | 13.9 | 0.00 | 0.65 | 0.05 | 89 | 1010.2 |
| 20260505120237 | 51 | 41 | 5.2 | 13.9 | 0.00 | 0.65 | 0.05 | 89 | 1010.4 |
| 20260505115734 | 51 | 68 | 7.0 | 11.3 | 0.00 | 0.65 | 0.05 | 90 | 1010.4 |
| 20260505115252 | 51 | 28 | 6.1 | 11.3 | 0.00 | 0.65 | 0.05 | 89 | 1010.4 |
| 20260505114733 | 51 | 34 | 5.2 | 9.6 | 0.00 | 0.65 | 0.05 | 90 | 1010.3 |
| 20260505114259 | 51 | 34 | 6.1 | 9.6 | 0.00 | 0.65 | 0.05 | 90 | 1010.4 |
| 20260505113734 | 51 | 35 | 4.3 | 9.6 | 0.00 | 0.65 | 0.05 | 90 | 1010.4 |
| 20260505113233 | 51 | 41 | 5.2 | 13.0 | 0.00 | 0.65 | 0.05 | 90 | 1010.6 |
| 20260505112735 | 51 | 45 | 7.0 | 13.0 | 0.00 | 0.65 | 0.05 | 91 | 1010.5 |
| 20260505112234 | 50 | 45 | 6.1 | 11.3 | 0.00 | 0.65 | 0.05 | 91 | 1010.5 |
| 20260505111733 | 50 | 37 | 6.1 | 11.3 | 0.00 | 0.65 | 0.05 | 91 | 1010.6 |
| 20260505111236 | 50 | 52 | 7.0 | 11.3 | 0.00 | 0.65 | 0.05 | 91 | 1010.7 |
| 20260505110733 | 50 | 27 | 3.5 | 7.8 | 0.00 | 0.65 | 0.05 | 91 | 1010.6 |
| 20260505110234 | 50 | 37 | 4.3 | 7.8 | 0.00 | 0.65 | 0.05 | 91 | 1010.6 |
| 20260505101730 | 50 | 48 | 4.3 | 6.1 | 0.00 | 0.65 | 0.05 | 92 | 1010.7 |
| 20260505101230 | 50 | 28 | 3.5 | 10.4 | 0.00 | 0.65 | 0.05 | 92 | 1010.9 |
| 20260505100730 | 50 | 65 | 5.2 | 11.3 | 0.00 | 0.65 | 0.05 | 91 | 1010.8 |
| 20260505100541 | 50 | 30 | 7.0 | 11.3 | 0.00 | 0.65 | 0.05 | 92 | 1010.8 |
| 20260505095745 | 50 | 38 | 5.2 | 12.2 | 0.00 | 0.65 | 0.05 | 92 | 1010.8 |
| 20260505095231 | 50 | 42 | 6.1 | 12.2 | 0.00 | 0.65 | 0.05 | 92 | 1010.8 |
| 20260505094732 | 50 | 82 | 7.0 | 12.2 | 0.00 | 0.65 | 0.05 | 92 | 1010.9 |
| 20260505094231 | 50 | 42 | 7.0 | 12.2 | 0.00 | 0.65 | 0.05 | 92 | 1010.8 |
| 20260505093732 | 50 | 58 | 5.2 | 12.2 | 0.00 | 0.65 | 0.05 | 92 | 1010.7 |
| 20260505093229 | 50 | 28 | 4.3 | 10.4 | 0.00 | 0.65 | 0.05 | 92 | 1010.7 |
| 20260505092730 | 50 | 34 | 5.2 | 10.4 | 0.00 | 0.65 | 0.05 | 92 | 1010.7 |
| 20260505092231 | 50 | 34 | 3.5 | 6.1 | 0.00 | 0.65 | 0.05 | 92 | 1010.8 |
| 20260505091731 | 50 | 61 | 3.5 | 8.7 | 0.00 | 0.65 | 0.05 | 92 | 1010.6 |
| 20260505091231 | 50 | 56 | 3.5 | 8.7 | 0.00 | 0.65 | 0.05 | 93 | 1010.7 |
| 20260505090730 | 50 | 0 | 4.3 | 8.7 | 0.00 | 0.65 | 0.05 | 92 | 1010.8 |
| 20260505090230 | 50 | 10 | 5.2 | 8.7 | 0.00 | 0.65 | 0.05 | 92 | 1010.8 |
| 20260505085730 | 50 | 28 | 3.5 | 7.8 | 0.00 | 0.65 | 0.05 | 92 | 1010.8 |
| 20260505085230 | 50 | 44 | 2.6 | 11.3 | 0.00 | 0.65 | 0.05 | 93 | 1010.9 |
| 20260505084731 | 50 | 11 | 6.1 | 11.3 | 0.00 | 0.65 | 0.05 | 93 | 1010.8 |
| 20260505084527 | 50 | 51 | 2.6 | 11.3 | 0.00 | 0.65 | 0.05 | 93 | 1010.9 |
| 20260505083730 | 50 | 49 | 7.0 | 11.3 | 0.00 | 0.65 | 0.05 | 93 | 1010.9 |
| 20260505083520 | 50 | 45 | 4.3 | 9.6 | 0.00 | 0.65 | 0.05 | 93 | 1010.9 |
| 20260505082730 | 50 | 28 | 3.5 | 8.7 | 0.00 | 0.65 | 0.05 | 93 | 1010.8 |
| 20260505082231 | 50 | 62 | 5.2 | 6.1 | 0.00 | 0.65 | 0.05 | 93 | 1010.9 |
| 20260505081728 | 50 | 44 | 5.2 | 9.6 | 0.00 | 0.65 | 0.05 | 93 | 1010.8 |
| 20260505081521 | 50 | 68 | 4.3 | 9.6 | 0.00 | 0.65 | 0.05 | 93 | 1010.9 |
| 20260505080730 | 50 | 44 | 3.5 | 8.7 | 0.00 | 0.65 | 0.05 | 93 | 1010.9 |
| 20260505080230 | 50 | 58 | 5.2 | 11.3 | 0.00 | 0.65 | 0.05 | 93 | 1010.8 |
| 20260505075729 | 50 | 17 | 5.2 | 11.3 | 0.00 | 0.65 | 0.05 | 93 | 1010.8 |
| 20260505075228 | 50 | 25 | 4.3 | 8.7 | 0.00 | 0.65 | 0.05 | 93 | 1010.8 |
| 20260505074730 | 50 | 52 | 2.6 | 11.3 | 0.00 | 0.65 | 0.05 | 93 | 1010.8 |
| 20260505074229 | 49 | 37 | 4.3 | 11.3 | 0.00 | 0.65 | 0.05 | 93 | 1010.9 |
| 20260505073730 | 50 | 32 | 7.0 | 11.3 | 0.00 | 0.65 | 0.05 | 93 | 1010.9 |
| 20260505073229 | 50 | 61 | 5.2 | 11.3 | 0.00 | 0.65 | 0.05 | 93 | 1010.9 |
| 20260505072728 | 50 | 31 | 6.1 | 10.4 | 0.00 | 0.65 | 0.05 | 93 | 1010.7 |
| 20260505072530 | 50 | 51 | 4.3 | 9.6 | 0.00 | 0.65 | 0.05 | 93 | 1010.7 |
| 20260505071728 | 50 | 28 | 3.5 | 10.4 | 0.00 | 0.65 | 0.05 | 93 | 1010.7 |
| 20260505071229 | 50 | 45 | 4.3 | 10.4 | 0.00 | 0.65 | 0.05 | 93 | 1010.7 |
| 20260505070727 | 50 | 23 | 5.2 | 8.7 | 0.00 | 0.65 | 0.05 | 93 | 1010.9 |
| 20260505070227 | 50 | 31 | 4.3 | 9.6 | 0.00 | 0.65 | 0.05 | 93 | 1010.8 |
| 20260505065742 | 50 | 34 | 3.5 | 9.6 | 0.00 | 0.65 | 0.05 | 93 | 1010.8 |
| 20260505065228 | 50 | 21 | 4.3 | 10.4 | 0.00 | 0.65 | 0.05 | 93 | 1010.9 |
| 20260505065036 | 50 | 32 | 4.3 | 10.4 | 0.00 | 0.65 | 0.05 | 93 | 1010.8 |
| 20260505064227 | 50 | 34 | 4.3 | 8.7 | 0.00 | 0.65 | 0.05 | 93 | 1010.8 |
| 20260505064023 | 50 | 18 | 3.5 | 8.7 | 0.00 | 0.65 | 0.05 | 93 | 1010.8 |
| 20260505063227 | 50 | 34 | 4.3 | 7.8 | 0.00 | 0.65 | 0.05 | 93 | 1010.9 |
| 20260505062726 | 50 | 27 | 2.6 | 7.8 | 0.00 | 0.65 | 0.05 | 93 | 1010.9 |
| 20260505062226 | 50 | 27 | 3.5 | 6.1 | 0.00 | 0.65 | 0.05 | 93 | 1011.0 |
| 20260505061726 | 50 | 49 | 3.5 | 8.7 | 0.00 | 0.65 | 0.05 | 93 | 1010.9 |
| 20260505061226 | 50 | 34 | 3.5 | 9.6 | 0.00 | 0.65 | 0.05 | 93 | 1010.9 |
| 20260505060739 | 50 | 30 | 3.5 | 10.4 | 0.00 | 0.65 | 0.05 | 93 | 1010.9 |
| 20260505060243 | 50 | 47 | 5.2 | 10.4 | 0.00 | 0.65 | 0.05 | 93 | 1010.8 |
| 20260505055727 | 50 | 42 | 5.2 | 10.4 | 0.00 | 0.65 | 0.05 | 93 | 1010.9 |
| 20260505055225 | 50 | 27 | 5.2 | 11.3 | 0.00 | 0.65 | 0.05 | 93 | 1010.9 |
| 20260505054726 | 51 | 31 | 6.1 | 11.3 | 0.00 | 0.65 | 0.05 | 93 | 1010.7 |
| 20260505054226 | 51 | 49 | 6.1 | 11.3 | 0.00 | 0.65 | 0.05 | 93 | 1010.7 |
| 20260505053724 | 51 | 7 | 3.5 | 8.7 | 0.00 | 0.65 | 0.05 | 93 | 1010.7 |
| 20260505053225 | 51 | 48 | 3.5 | 8.7 | 0.00 | 0.65 | 0.05 | 93 | 1010.8 |
| 20260505052726 | 51 | 0 | 5.2 | 8.7 | 0.00 | 0.65 | 0.05 | 93 | 1010.9 |
| 20260505052225 | 51 | 23 | 5.2 | 8.7 | 0.00 | 0.65 | 0.05 | 93 | 1010.8 |
| 20260505051726 | 51 | 42 | 4.3 | 10.4 | 0.00 | 0.65 | 0.05 | 93 | 1010.8 |
| 20260505051224 | 51 | 37 | 3.5 | 11.3 | 0.00 | 0.65 | 0.05 | 93 | 1010.8 |
| 20260505050724 | 51 | 42 | 5.2 | 11.3 | 0.00 | 0.65 | 0.05 | 93 | 1010.8 |
| 20260505050511 | 51 | 24 | 3.5 | 8.7 | 0.00 | 0.65 | 0.05 | 93 | 1010.8 |
| 20260505041724 | 52 | 4 | 2.6 | 9.6 | 0.00 | 0.65 | 0.05 | 92 | 1010.8 |
| 20260505041222 | 52 | 10 | 4.3 | 9.6 | 0.00 | 0.65 | 0.05 | 92 | 1010.7 |
| 20260505040723 | 51 | 44 | 5.2 | 8.7 | 0.00 | 0.65 | 0.05 | 92 | 1010.8 |
| 20260505040223 | 52 | 39 | 4.3 | 7.8 | 0.00 | 0.65 | 0.05 | 92 | 1010.8 |
| 20260505035722 | 52 | 34 | 4.3 | 8.7 | 0.00 | 0.65 | 0.05 | 92 | 1010.7 |
| 20260505035235 | 52 | 38 | 3.5 | 8.7 | 0.00 | 0.65 | 0.05 | 92 | 1010.7 |
| 20260505035023 | 52 | 38 | 3.5 | 9.6 | 0.00 | 0.65 | 0.05 | 92 | 1010.7 |
| 20260505034230 | 52 | 28 | 3.5 | 9.6 | 0.00 | 0.65 | 0.05 | 92 | 1010.7 |
| 20260505033721 | 52 | 27 | 5.2 | 9.6 | 0.00 | 0.65 | 0.05 | 92 | 1010.6 |
| 20260505033555 | 52 | 13 | 5.2 | 11.3 | 0.00 | 0.65 | 0.05 | 92 | 1010.6 |
| 20260505032738 | 52 | 28 | 5.2 | 11.3 | 0.00 | 0.65 | 0.05 | 92 | 1010.7 |
| 20260505032222 | 53 | 25 | 4.3 | 8.7 | 0.00 | 0.65 | 0.05 | 92 | 1010.7 |
| 20260505031722 | 53 | 24 | 4.3 | 12.2 | 0.00 | 0.65 | 0.05 | 92 | 1010.7 |
| 20260505031533 | 53 | 7 | 4.3 | 12.2 | 0.00 | 0.65 | 0.05 | 92 | 1010.6 |
| 20260505030721 | 53 | 24 | 4.3 | 9.6 | 0.00 | 0.65 | 0.05 | 92 | 1010.6 |
| 20260505030221 | 53 | 24 | 4.3 | 9.6 | 0.00 | 0.65 | 0.05 | 92 | 1010.8 |
| 20260505025721 | 53 | 24 | 6.1 | 9.6 | 0.00 | 0.65 | 0.05 | 92 | 1010.8 |
| 20260505025221 | 53 | 10 | 6.1 | 9.6 | 0.00 | 0.65 | 0.05 | 92 | 1010.9 |
| 20260505024722 | 53 | 11 | 5.2 | 9.6 | 0.00 | 0.65 | 0.05 | 92 | 1010.9 |
| 20260505024221 | 53 | 32 | 6.1 | 9.6 | 0.00 | 0.65 | 0.05 | 92 | 1010.9 |
| 20260505023749 | 53 | 10 | 3.5 | 8.7 | 0.00 | 0.65 | 0.05 | 92 | 1011.1 |
| 20260505023225 | 53 | 21 | 4.3 | 8.7 | 0.00 | 0.65 | 0.05 | 92 | 1011.1 |
| 20260505022719 | 53 | 0 | 3.5 | 8.7 | 0.00 | 0.65 | 0.05 | 92 | 1011.0 |
| 20260505022219 | 53 | 8 | 1.7 | 6.1 | 0.00 | 0.65 | 0.05 | 92 | 1011.0 |
| 20260505021739 | 53 | 8 | 2.6 | 6.1 | 0.00 | 0.65 | 0.05 | 92 | 1011.0 |
| 20260505021516 | 53 | 42 | 2.6 | 7.8 | 0.00 | 0.65 | 0.05 | 92 | 1011.0 |
| 20260505020717 | 53 | 25 | 2.6 | 8.7 | 0.00 | 0.65 | 0.05 | 92 | 1011.0 |
| 20260505020228 | 53 | 0 | 3.5 | 8.7 | 0.00 | 0.65 | 0.05 | 92 | 1011.0 |
| 20260505015716 | 53 | 3 | 2.6 | 9.6 | 0.00 | 0.65 | 0.05 | 92 | 1010.9 |
| 20260505015214 | 53 | 3 | 4.3 | 9.6 | 0.00 | 0.65 | 0.05 | 92 | 1010.9 |
| 20260505014714 | 53 | 358 | 4.3 | 9.6 | 0.00 | 0.65 | 0.05 | 92 | 1010.9 |
| 20260505014214 | 53 | 8 | 6.1 | 10.4 | 0.00 | 0.65 | 0.05 | 92 | 1010.9 |
| 20260505013711 | 53 | 0 | 5.2 | 10.4 | 0.00 | 0.65 | 0.05 | 92 | 1011.0 |
| 20260505013213 | 54 | 35 | 5.2 | 10.4 | 0.00 | 0.65 | 0.05 | 92 | 1011.0 |
| 20260505012710 | 54 | 27 | 4.3 | 11.3 | 0.00 | 0.65 | 0.05 | 92 | 1011.1 |
| 20260505012523 | 54 | 3 | 5.2 | 11.3 | 0.00 | 0.65 | 0.05 | 92 | 1011.1 |
| 20260505011710 | 54 | 30 | 4.3 | 11.3 | 0.00 | 0.65 | 0.05 | 92 | 1011.1 |
| 20260505011210 | 54 | 337 | 6.1 | 11.3 | 0.01 | 0.65 | 0.05 | 92 | 1011.2 |
| 20260505010708 | 54 | 6 | 4.3 | 13.0 | 0.01 | 0.65 | 0.05 | 92 | 1011.2 |
| 20260505010211 | 54 | 17 | 7.8 | 13.0 | 0.01 | 0.65 | 0.05 | 92 | 1011.2 |
| 20260505005711 | 54 | 23 | 4.3 | 9.6 | 0.01 | 0.64 | 0.05 | 92 | 1011.4 |
| 20260505005209 | 54 | 0 | 5.2 | 10.4 | 0.02 | 0.64 | 0.05 | 92 | 1011.3 |
| 20260505004708 | 54 | 20 | 4.3 | 10.4 | 0.02 | 0.64 | 0.05 | 92 | 1011.2 |
| 20260505004211 | 55 | 6 | 6.1 | 11.3 | 0.02 | 0.64 | 0.05 | 92 | 1011.3 |
| 20260505003707 | 55 | 32 | 4.3 | 11.3 | 0.03 | 0.64 | 0.05 | 92 | 1011.3 |
| 20260505003230 | 55 | 10 | 5.2 | 10.4 | 0.03 | 0.64 | 0.05 | 92 | 1011.3 |
| 20260505002708 | 55 | 6 | 4.3 | 10.4 | 0.03 | 0.64 | 0.05 | 92 | 1011.4 |
| 20260505002209 | 55 | 30 | 5.2 | 11.3 | 0.03 | 0.64 | 0.05 | 92 | 1011.4 |
| 20260505001955 | 55 | 11 | 6.1 | 11.3 | 0.03 | 0.64 | 0.05 | 92 | 1011.4 |
| 20260505001209 | 55 | 21 | 4.3 | 8.7 | 0.02 | 0.64 | 0.04 | 92 | 1011.3 |
| 20260505000713 | 55 | 25 | 3.5 | 10.4 | 0.02 | 0.64 | 0.04 | 92 | 1011.5 |
| 20260505000211 | 55 | 4 | 5.2 | 10.4 | 0.02 | 0.64 | 0.04 | 92 | 1011.4 |
| 20260504235712 | 55 | 11 | 3.5 | 7.8 | 0.02 | 0.61 | 0.04 | 92 | 1011.6 |
| 20260504235223 | 55 | 0 | 4.3 | 8.7 | 0.02 | 0.61 | 0.03 | 92 | 1011.6 |
| 20260504234720 | 56 | 6 | 4.3 | 8.7 | 0.02 | 0.61 | 0.03 | 92 | 1011.6 |
| 20260504234207 | 56 | 31 | 3.5 | 8.7 | 0.01 | 0.61 | 0.02 | 92 | 1011.7 |
| 20260504233709 | 56 | 11 | 3.5 | 7.8 | 0.00 | 0.61 | 0.02 | 92 | 1011.6 |
| 20260504233213 | 56 | 31 | 4.3 | 9.6 | 0.00 | 0.61 | 0.02 | 92 | 1011.6 |
| 20260504232704 | 56 | 24 | 4.3 | 9.6 | 0.00 | 0.61 | 0.02 | 92 | 1011.6 |
| 20260504232203 | 56 | 8 | 3.5 | 8.7 | 0.00 | 0.61 | 0.02 | 92 | 1011.6 |
| 20260504231703 | 56 | 10 | 3.5 | 7.8 | 0.01 | 0.61 | 0.02 | 92 | 1011.8 |
| 20260504231511 | 56 | 11 | 3.5 | 9.6 | 0.01 | 0.61 | 0.02 | 92 | 1011.7 |
| 20260504230706 | 56 | 18 | 3.5 | 9.6 | 0.01 | 0.61 | 0.02 | 92 | 1011.7 |
| 20260504230203 | 56 | 25 | 3.5 | 8.7 | 0.01 | 0.61 | 0.02 | 92 | 1011.7 |
| 20260504225703 | 56 | 21 | 5.2 | 8.7 | 0.02 | 0.60 | 0.02 | 92 | 1011.7 |
| 20260504225202 | 56 | 39 | 4.3 | 8.7 | 0.02 | 0.60 | 0.02 | 92 | 1011.9 |
| 20260504224703 | 56 | 47 | 2.6 | 8.7 | 0.03 | 0.60 | 0.02 | 92 | 1011.8 |
| 20260504224205 | 56 | 17 | 4.3 | 8.7 | 0.05 | 0.60 | 0.02 | 92 | 1011.9 |
| 20260504223703 | 57 | 16 | 4.3 | 8.7 | 0.07 | 0.60 | 0.02 | 92 | 1012.0 |
| 20260504223453 | 57 | 7 | 4.3 | 8.7 | 0.09 | 0.60 | 0.02 | 92 | 1011.9 |
| 20260504222841 | 57 | 24 | 3.5 | 8.7 | 0.17 | 0.60 | 0.02 | 92 | 1012.0 |
| 20260504222813 | 57 | 0 | 6.1 | 8.7 | 0.14 | 0.60 | 0.02 | 92 | 1012.0 |
| 20260504221702 | 57 | 6 | 2.6 | 5.2 | 0.17 | 0.60 | 0.01 | 92 | 1012.1 |
| 20260504221203 | 57 | 351 | 1.7 | 4.3 | 0.19 | 0.61 | 0.01 | 92 | 1012.0 |
| 20260504220955 | 57 | 336 | 1.7 | 3.5 | 0.22 | 0.61 | 0.01 | 91 | 1012.0 |
| 20260504220208 | 57 | 200 | 0.0 | 0.0 | 0.26 | 0.61 | 0.01 | 91 | 1012.1 |
| 20260504215944 | 57 | 199 | 0.0 | 0.0 | 0.33 | 0.33 | 0.61 | 91 | 1012.1 |
| 20260504215204 | 57 | 199 | 0.0 | 0.0 | 0.35 | 0.33 | 0.60 | 91 | 1012.2 |
| 20260504214702 | 57 | 199 | 0.0 | 0.0 | 0.38 | 0.33 | 0.58 | 91 | 1012.2 |